Starlink 31310

operational
NORAD ID: 59092 Int'l Des: 2024-041 Owner: SPXS Country: US Constellation: starlink
LEOCIRCULAR

Über Starlink 31310

Beschreibung wird geladen...

Live-Position

3D-Globus wird geladen...

Nächste Überflüge

Höhenverlauf

Altitude vs Time

uPlot chart will show altitude changes over time

Zweizeiliger Elementsatz

1 59092U 24041U 25303.48653470 .00000429 00000-0 25108-4 0 9991
2 59092 43.0017 326.4520 0000965 256.0888 103.9857 15.27575555 94352
Epoch: 30. Okt. 2025 • Age: 29 hours

Aktueller Status

Höhe 493.3 km
Geschwindigkeit 7.62 km/s
Subsatellitenpunkt -37.05°S, 101.74°W
Startdatum 29. Feb. 2024
Alter 1.6 years
Typ internet

Technische Details

Klassifizierung Payload
Masse 730.00 kg
Trockenmasse 700.00 kg
Gesamtmasse 730.00 kg
Länge 0.30 m
Durchmesser 4.10 m
Spannweite 29.00 m
Form Box + pan
Hersteller SPXS
Bus-Typ Starlink V2M
Phasenstatus In Orbit
Besitzer/Staat SPXS/US

Große Konstellationen

Loading constellations...